Simultaneous Nadir Overpasses (SNOs) Predictions

Prediction of SNOs between GOES-17 and TERRA Satellite Orbit:

Table of predicted SNOs for the next 14.0 days since TLE Epoch: 9/28/2024
Index Date Time (GOES-17) GOES-17 Lat,Lon TERRA Lat,Lon Distance(km) Time Diff (sec)
1 09/29/2024 04:25:10 0.00,-104.67 0.67,-101.58 352.36 80
2 09/29/2024 16:44:58 -0.00,-104.73 0.33,-106.39 188.54 80
3 10/01/2024 16:29:48 -0.01,-104.74 -0.55,-102.09 300.58 80
4 10/02/2024 04:49:45 0.01,-104.68 -0.49,-106.94 256.80 80
5 10/04/2024 04:29:15 0.02,-104.69 0.45,-102.64 232.66 80
6 10/04/2024 16:49:03 -0.02,-104.75 0.54,-107.46 308.38 80
7 10/06/2024 16:33:51 -0.02,-104.75 -0.32,-103.15 181.31 80
8 10/07/2024 04:53:47 0.02,-104.70 -0.67,-108.00 375.62 80
9 10/09/2024 04:33:14 0.01,-104.70 0.19,-103.69 114.16 80
10 10/09/2024 16:53:02 -0.01,-104.75 0.79,-108.51 427.39 80
11 10/11/2024 16:37:49 -0.01,-104.75 -0.12,-104.20 62.40 80
